Regional Weather Roundup
Issued by NWS

Home | Current Version | Previous Version | Text Only | Print | Product List | Glossary On
Versions: 1 2 3 4 5 6 7 8 9 10 11 12 13 14 15 16 17 18 19 20 21 22 23 24 25 26 27 28 29 30 31 32 33 34 35 36 37 38 39 40 41 42 43 44 45 46 47 48 49 50
000
ASUS44 KFWD 151215
RWRTX
NORTH TEXAS HOURLY WEATHER ROUNDUP
NATIONAL WEATHER SERVICE FORT WORTH TX
600 AM CST FRI DEC 15 2017

NOTE: "FAIR" INDICATES FEW OR NO CLOUDS BELOW 12,000 FEET WITH NO
SIGNIFICANT WEATHER AND/OR OBSTRUCTIONS TO VISIBILITY.

TXZ118-119-151300-
DALLAS/FORT WORTH METROPLEX

CITY           SKY/WX    TMP DP  RH WIND       PRES   REMARKS
DFW AIRPORT    PTCLDY    40  28  62 NW12      30.26R WCI  33
6HR MIN TEMP:  36; 6HR MAX TEMP:  44;

DALLAS LOVE    PTCLDY    38  28  67 NW6       30.27R WCI  33
6HR MIN TEMP:  36; 6HR MAX TEMP:  43;

FTW MEACHAM    PTCLDY    39  28  64 NW9       30.28R WCI  33
6HR MIN TEMP:  37; 6HR MAX TEMP:  45;

DAL-EXECUTIVE  CLEAR     39  29  67 W7        30.25R WCI  34
6HR MIN TEMP:  38; 6HR MAX TEMP:  43;

FTW-ALLIANCE   PTCLDY    37  29  72 N7        30.27R WCI  32
6HR MIN TEMP:  29; 6HR MAX TEMP:  37;

FTW-NAS-JRB    PTCLDY    39  28  64 NW12      30.30R WCI  32
6HR MIN TEMP:  38; 6HR MAX TEMP:  44;

FTW-SPINKS     CLEAR     33  27  76 NW5       30.29R WCI  29
6HR MIN TEMP:  32; 6HR MAX TEMP:  42;

ARLINGTON      CLEAR     39  28  64 W9        30.27R WCI  33
6HR MIN TEMP:  32; 6HR MAX TEMP:  41;

GRAND PRAIRIE  CLEAR     40  27  59 W3        30.29R
6HR MIN TEMP:  40; 6HR MAX TEMP:  46;

ADDISON        CLEAR     37  28  70 W3        30.27R
MESQUITE       CLEAR     32  27  81 CALM      30.27R
6HR MIN TEMP:  31; 6HR MAX TEMP:  41;

LANCASTER      CLEAR     33  27  78 W3        30.28R
6HR MIN TEMP:  33; 6HR MAX TEMP:  42;

$$

TXZ091>094-102>105-117-120-121-131>134-151300-
NORTH CENTRAL TEXAS

CITY           SKY/WX    TMP DP  RH WIND       PRES   REMARKS
SHRMAN/DENISON CLEAR     29  25  83 W3        30.26S
6HR MIN TEMP:  29; 6HR MAX TEMP:  35;

GAINESVILLE    CLEAR     33  27  78 NW10      30.29R WCI  24
6HR MIN TEMP:  29; 6HR MAX TEMP:  36;

BOWIE          CLEAR     32  28  82 NW8       30.29R WCI  25
6HR MIN TEMP:  30; 6HR MAX TEMP:  37;

BRIDGEPORT     PTCLDY    38  31  76 NW8       30.31R WCI  32
6HR MIN TEMP:  31; 6HR MAX TEMP:  38;

DENTON         CLEAR     32  27  81 NW6       30.27R WCI  26
6HR MIN TEMP:  26; 6HR MAX TEMP:  33;

MCKINNEY       CLEAR     30  26  85 NW5       30.26R WCI  25
6HR MIN TEMP:  27; 6HR MAX TEMP:  40;

BONHAM         CLEAR     29  25  83 W6        30.25R WCI  23
6HR MIN TEMP:  28; 6HR MAX TEMP:  35;

GREENVILLE     CLEAR     34  30  86 CALM      30.26R
ROCKWALL       CLEAR     36  28  75 NW6       30.27R WCI  31
6HR MIN TEMP:  35; 6HR MAX TEMP:  43;

TERRELL        CLEAR     32  25  75 CALM      30.27R
6HR MIN TEMP:  31; 6HR MAX TEMP:  40;

WAXAHACHIE     CLEAR     35  30  81 W6        30.28R WCI  30
6HR MIN TEMP:  35; 6HR MAX TEMP:  42;

CLEBURNE       CLEAR     34  27  75 NW10      30.29R WCI  26
GRANBURY       CLOUDY    33  26  75 W5        30.31R WCI  28
6HR MIN TEMP:  33; 6HR MAX TEMP:  40;

$$

TXZ083>090-098>101-113>116-127>130-139>142-154-155-151300-
WESTERN NORTH TEXAS

CITY           SKY/WX    TMP DP  RH WIND       PRES   REMARKS
WICHITA FALLS  CLEAR     32  25  75 NW12      30.30R WCI  23
6HR MIN TEMP:  32; 6HR MAX TEMP:  40;

WF-KICKAPOO    CLEAR     36  26  69 NW8       30.33R WCI  29
6HR MIN TEMP:  35; 6HR MAX TEMP:  38;

VERNON         CLEAR     33  22  65 NW6       30.33R WCI  27
6HR MIN TEMP:  33; 6HR MAX TEMP:  56;

ABILENE        CLEAR     26  22  84 CALM      30.32R
6HR MIN TEMP:  25; 6HR MAX TEMP:  35;

ABILENE-DYESS  CLEAR     33  24  69 W5        30.32R WCI  29
6HR MIN TEMP:  30; 6HR MAX TEMP:  36;

GRAHAM           N/A     30  26  84 CALM      30.30R
6HR MIN TEMP:  29; 6HR MAX TEMP:  33;

BRECKENRIDGE   CLEAR     35  26  70 N3        30.31R
6HR MIN TEMP:  32; 6HR MAX TEMP:  37;

CISCO          PTCLDY    34  25  69 NW7       30.30R WCI  28
EASTLAND       PTCLDY    32  25  75 NW6       30.30R WCI  26
6HR MIN TEMP:  27; 6HR MAX TEMP:  34;

RANGER         PTCLDY    36  28  72 N6        30.29R WCI  32
6HR MIN TEMP:  34; 6HR MAX TEMP:  72;

MINERAL WELLS  MOCLDY    32  25  75 NW5       30.29R WCI  27
6HR MIN TEMP:  30; 6HR MAX TEMP:  38;

STEPHENVILLE   CLEAR     33  26  75 NW7       30.30R WCI  27
6HR MIN TEMP:  33; 6HR MAX TEMP:  41;

COMANCHE       PTCLDY    37  28  68 NW9       30.30R WCI  30
6HR MIN TEMP:  37; 6HR MAX TEMP:  39;

BROWNWOOD      CLOUDY    28  23  80 CALM      30.31R
COLEMAN        PTCLDY    37  26  65 NW5       30.31R WCI  33
6HR MIN TEMP:  34; 6HR MAX TEMP:  39;

$$

TXZ143>147-156>162-174-175-151300-
CENTRAL TEXAS

CITY           SKY/WX    TMP DP  RH WIND       PRES   REMARKS
WACO           CLOUDY    31  27  85 CALM      30.27R
6HR MIN TEMP:  31; 6HR MAX TEMP:  46;

WACO-MCGREGOR  CLOUDY    38  27  64 W3        30.27S
6HR MIN TEMP:  38; 6HR MAX TEMP:  46;

HILLSBORO      PTCLDY    36  27  69 CALM      30.27R
6HR MIN TEMP:  34; 6HR MAX TEMP:  41;

CORSICANA      CLOUDY    34  27  75 NW6       30.28R WCI  29
6HR MIN TEMP:  34; 6HR MAX TEMP:  44;

MEXIA          CLOUDY    38  27  62 NW3       30.25S
6HR MIN TEMP:  38; 6HR MAX TEMP:  46;

HEARNE         CLOUDY    42  31  65 NW5       30.26S WCI  39
6HR MIN TEMP:  42; 6HR MAX TEMP:  50;

CAMERON        MOCLDY    42  29  60 NW7       30.26S WCI  38
6HR MIN TEMP:  42; 6HR MAX TEMP:  49;

TEMPLE         CLOUDY    39  29  67 NW5       30.27S WCI  36
6HR MIN TEMP:  39; 6HR MAX TEMP:  46;

KILLEEN        CLEAR     41  27  57 W7        30.26R WCI  36
6HR MIN TEMP:  39; 6HR MAX TEMP:  46;

KILLEEN-SKYLRK MOCLDY    40  29  64 NW6       30.27R WCI  36
6HR MIN TEMP:  40; 6HR MAX TEMP:  48;

FORT HOOD      PTCLDY    39  28  63 NW8       30.23S WCI  34
6HR MIN TEMP:  39; 6HR MAX TEMP:  47;

GATESVILLE     CLEAR     36  27  69 CALM      30.29S
HAMILTON       PTCLDY    36  28  74 NW9       30.28S WCI  29
6HR MIN TEMP:  35; 6HR MAX TEMP:  44;

LAMPASAS       CLEAR     38  26  62 NW5       30.27R WCI  35
6HR MIN TEMP:  38; 6HR MAX TEMP:  46;

$$

TXZ095>097-106>112-122>126-135>138-148>153-164>167-151300-
EAST TEXAS

CITY           SKY/WX    TMP DP  RH WIND       PRES   REMARKS
PARIS          PTCLDY    31  26  82 W3        30.24R
6HR MIN TEMP:  29; 6HR MAX TEMP:  37;

SULPHUR SPRNGS CLEAR     32  27  81 W3        30.28R
6HR MIN TEMP:  32; 6HR MAX TEMP:  40;

MOUNT PLEASANT PTCLDY    32  28  85 CALM      30.26R
6HR MIN TEMP:  31; 6HR MAX TEMP:  42;

GILMER         CLOUDY    33  28  83 MISG      30.25R HAZE
6HR MIN TEMP:  33; 6HR MAX TEMP:  42;

MINEOLA        CLOUDY    32  28  86 CALM      30.26R
TYLER          CLOUDY    36  28  73 CALM      30.24S
6HR MIN TEMP:  35; 6HR MAX TEMP:  44;

LONGVIEW       CLOUDY    37  31  78 NW3       30.24R
6HR MIN TEMP:  36; 6HR MAX TEMP:  45;

MARSHALL       CLOUDY    35  28  77 CALM      30.27R
6HR MIN TEMP:  33; 6HR MAX TEMP:  45;

ATHENS         PTCLDY    32  27  80 CALM      30.24S
PALESTINE      CLOUDY    39  31  74 NW3       30.26S
JACKSONVILLE   CLOUDY    39  30  68 N3        30.25R
HENDERSON      CLOUDY    38  29  70 CALM      30.25S
6HR MIN TEMP:  37; 6HR MAX TEMP:  45;

CENTER         CLOUDY    37  31  80 CALM      30.23S
6HR MIN TEMP:  36; 6HR MAX TEMP:  43;

NACOGDOCHES    CLOUDY    40  31  70 N5        30.24R WCI  37
6HR MIN TEMP:  40; 6HR MAX TEMP:  45;

LUFKIN         CLOUDY    42  30  62 N7        30.22R WCI  38
6HR MIN TEMP:  42; 6HR MAX TEMP:  48;

$$

SUPPLEMENTAL OBSERVATIONS (NWS


USA.gov is the U.S. government's official web portal to all federal, state and local government web resources and services.